Location: Unspecified
(52.4292°N, 19.3359°E)
Time: 00:32:27
(UTC+02:00)

SR - Pass Details

Date: 05 June 2024
Orbit: 580 x 858 km, 66.7° (Epoch: 12 June)

Event Time Altitude Azimuth Distance (km) Brightness Sun altitude
Rises 18:53:50 0° 294° (WNW) 3,008 ? 15.9°
Reaches altitude 10° 18:57:19 10° 320° (NW) 2,036 ? 15.4°
Maximum altitude 18:59:41 14° 351° (N) 1,762 ? 15.1°
Drops below altitude 10° 19:01:58 10° 23° (NNE) 1,971 ? 14.8°
Sets 19:05:15 0° 50° (NE) 2,839 ? 14.3°
